Regional Weather Roundup
Issued by NWS

Home | Current Version | Previous Version | Graphics & Text | Print | Product List | Glossary On
Versions: 1 2 3 4 5 6 7 8 9 10 11 12 13 14 15 16 17 18 19 20 21 22 23 24 25 26 27 28 29 30 31 32 33 34 35 36 37 38 39 40 41 42 43 44 45 46 47 48 49 50
000
ASUS43 KMKX 270700
RWRWI

WISCONSIN REGIONAL WEATHER ROUNDUP
NATIONAL WEATHER SERVICE MILWAUKEE/SULLIVAN WI
200 AM CDT WED AUG 27 2014

NOTE: "FAIR" INDICATES FEW OR NO CLOUDS BELOW 12,000 FEET WITH NO
SIGNIFICANT WEATHER AND/OR OBSTRUCTIONS TO VISIBILITY.

WIZ001-002-006>008-014>016-023>028-270800-
NORTHWEST WISCONSIN

CITY           SKY/WX    TMP DP  RH WIND       PRES   REMARKS
SUPERIOR ARPT  LGT RAIN  55  52  89 CALM      30.20S
ASHLAND        CLOUDY    57  53  86 CALM      30.19S
HAYWARD        CLOUDY    56  55  97 CALM      30.20F
SIREN          RAIN      58  55  88 CALM      30.20F
RICE LAKE      DRIZZLE   59  55  89 N3        30.21F
LADYSMITH      CLOUDY    60  55  81 N9        30.22R
EAU CLAIRE     CLOUDY    61  59  93 CALM      30.18R
MENOMONIE      CLOUDY    62  57  83 CALM      30.19S
NEW RICHMOND   LGT RAIN  59  55  87 CALM      30.20S
OSCEOLA        CLOUDY    60  59  97 N5        30.22F
$$

WIZ003>005-009-010-017-018-270800-
NORTH CENTRAL WISCONSIN

CITY           SKY/WX    TMP DP  RH WIND       PRES   REMARKS
WOODRUFF       LGT RAIN  57  54  90 CALM      30.18S
RHINELANDER    CLOUDY    55  53  93 W3        30.19R
EAGLE RIVER    LGT RAIN  53  53 100 CALM      30.17S
LAND O LAKES   CLOUDY    50  50  99 CALM      30.19S
PHILLIPS       RAIN      56  54  91 CALM      30.20R
TOMAHAWK       CLOUDY    53  51  96 CALM      30.19R
MEDFORD        CLOUDY    57  55  91 CALM      30.19S
MERRILL        CLOUDY    56  55  95 CALM      30.18R
$$

WIZ029-030-035-036-043>047-270800-
CENTRAL WISCONSIN

CITY           SKY/WX    TMP DP  RH WIND       PRES   REMARKS
WAUSAU         CLOUDY    60  54  80 CALM      30.16R
MOSINEE        CLOUDY    59  54  82 N7        30.18R
MARSHFIELD     CLOUDY    60  55  83 N6        30.17S
STEVENS POINT  CLOUDY    57  54  90 CALM      30.17S
WAUPACA        CLOUDY    63  58  84 CALM      30.15S
WAUTOMA        NOT AVBL
WISC RAPIDS    CLOUDY    62  55  77 NW3       30.18R
CAMP DOUGLAS   NOT AVBL
$$

WIZ011>013-019>022-031-037>040-048>050-270800-
NORTHEAST WISCONSIN

CITY           SKY/WX    TMP DP  RH WIND       PRES   REMARKS
ANTIGO         MOCLDY    55  53  94 CALM      30.18R
STURGEON BAY   CLOUDY    61  54  77 E3        30.15S
GREEN BAY      CLOUDY    60  56  86 N7        30.14F
MANITOWOC      NOT AVBL
APPLETON       CLOUDY    61  54  77 N9        30.15S
CLINTONVILLE   CLOUDY    61  54  77 CALM      30.15S
OSHKOSH        CLOUDY    64  58  80 W3        30.14R
$$

WIZ032>034-041-042-053>061-270800-
SOUTHWEST WISCONSIN

CITY           SKY/WX    TMP DP  RH WIND       PRES   REMARKS
LA CROSSE      CLOUDY    63  58  83 N5        30.17R
SPARTA         CLOUDY    59  58  95 CALM      30.18S
VIROQUA        PTSUNNY   61  61 100 CALM      30.18S
BOSCOBEL       CLOUDY    65  60  84 CALM      30.16R
PRAIRIE DU CHI CLOUDY    65  59  80 CALM      30.15S
PLATTEVILLE    CLOUDY    64  61  88 N3        30.16S
$$

WIZ056-057-062-063-064-067-068-270800-
SOUTH CENTRAL WISCONSIN

CITY           SKY/WX    TMP DP  RH WIND       PRES   REMARKS
BARABOO/DELLS  DRIZZLE   62  57  83 CALM      30.16R
LONE ROCK      NOT AVBL
WATERTOWN      CLOUDY    63  59  85 N3        30.14R
MADISON        LGT RAIN  64  59  83 CALM      30.14S
MIDDLETON      CLOUDY    65  62  91 CALM      30.15F
MONROE         CLOUDY    64  61  88 N5        30.15R
JANESVILLE     CLOUDY    68  57  68 N3        30.14R
$$

WIZ051-052-058>065-066-070>072-270800-
SOUTHEAST WISCONSIN

CITY           SKY/WX    TMP DP  RH WIND       PRES   REMARKS
MILWAUKEE      CLOUDY    66  57  72 N3        30.12S
WAUKESHA       CLOUDY    61  55  82 CALM      30.15S
MILWAUKEE/TIMM CLOUDY    63  55  77 N3        30.14S
RACINE         MOCLDY    65  60  84 N5        30.14S
BURLINGTON     MOCLDY    60  60  99 CALM      30.13F
KENOSHA        MOCLDY    65  61  87 N6        30.12F
FOND DU LAC    CLOUDY    63  57  81 W3        30.15R
SHEBOYGAN      CLOUDY    62  57  83 NW5       30.12F
WEST BEND      CLOUDY    61  55  82 CALM      30.14S
JUNEAU         DRIZZLE   61  58  90 N3        30.15S
$$

LSZ147-162-270800-
LAKE SUPERIOR

STATION/POSITION TIME  TEMP    WIND        PRES    WAVE
                       AIR SEA DIR/SP/G            HT/PER
                 (UTC) (F)     (DEG/KT/KT) (MB)    (FT/S)
W MID LAKE BUOY  0550   58 55  300/  8/ 10 1021.0R   1/ 3
DEVILS ISLAND    0600   61      CALM  /  1 1022.1R
PORT WING        0640   60     280/  2/  5 1022.0F
SAXON HARBOR     0600   57      CALM  /  3 1022.0R
$$

LMZ867-665-643>646-270800-
LAKE MICHIGAN

STATION/POSITION TIME  TEMP    WIND        PRES    WAVE
                       AIR SEA DIR/SP/G            HT/PER
                 (UTC) (F)     (DEG/KT/KT) (MB)    (FT/S)
N MID LAKE BUOY  0550   62 65  360/ 14/ 16 1019.9S   2/ 4
NORTHPORT PIER   0600   64     360/ 13/ 14 1020.7R
SISTER BAY       0611   62      30/  2/  5   N/A
KEWAUNEE LAKESHO 0600   61     330/  2/  4 1019.1R
SHEBOYGAN LAKESH 0600   66 65  300/  6/  7 1020.2S
ATWATER BUOY     0600   68     350/ 10/ 12 1021.2R
MILWAUKEE LAKESH 0600   68     340/  7/  9   N/A
S MID LAKE BUOY  0550   68 69     CALM     1020.0R   0
KENOSHA   LAKESH 0600   68        CALM     1019.6S
$$

TC  - TEMPERATURE IN CELSIUS
VSB - VISIBILITY IN STATUTE MILES
WCI - WIND CHILL INDEX
HX  - HEAT INDEX




USA.gov is the U.S. government's official web portal to all federal, state and local government web resources and services.